DW4465 Weather Reports


time (UTC)temp
F
wind
direction
speed
knots
gust
knots
rain 1hr
in
rain 24hr
in
rain mn
in
humidity
%
barometer
mb
20260902000054 81 279 1.7 8.7 0.00 0.00 0.00 54 1013.8
20260901234750 82 281 2.6 7.0 0.00 0.00 0.00 53 1013.9
20260901233043 83 30 2.6 6.1 0.00 0.00 0.00 52 1013.8
20260901231551 84 246 1.7 7.0 0.00 0.00 0.00 51 1013.7
20260901230123 84 288 0.9 8.7 0.00 0.00 0.00 52 1013.7
20260901224556 84 303 0.9 7.0 0.00 0.00 0.00 51 1013.8
20260901223108 85 0 1.7 4.3 0.00 0.00 0.00 50 1013.9
20260901221549 84 240 4.3 8.7 0.00 0.00 0.00 44 1014.1
20260901220058 83 182 4.3 8.7 0.00 0.00 0.00 42 1014.2
20260901214545 83 203 3.5 7.8 0.00 0.00 0.00 44 1014.3
20260901213053 82 204 1.7 9.6 0.00 0.00 0.00 46 1014.4
20260901211553 82 167 2.6 8.7 0.00 0.00 0.00 47 1014.5
20260901210048 82 211 3.5 8.7 0.00 0.00 0.00 48 1014.6
20260901204555 81 188 3.5 9.6 0.00 0.00 0.00 50 1014.7
20260901203054 81 198 2.6 7.8 0.00 0.00 0.00 52 1014.9
20260901201548 81 185 5.2 9.6 0.00 0.00 0.00 54 1015.1
20260901200056 81 195 2.6 7.8 0.00 0.00 0.00 56 1015.2
20260901194601 80 222 1.7 7.8 0.00 0.00 0.00 58 1015.2
20260901193053 80 197 2.6 7.0 0.00 0.00 0.00 59 1015.4
20260901191549 80 148 2.6 6.1 0.00 0.00 0.00 60 1015.6
20260901184553 79 250 1.7 6.1 0.00 0.00 0.00 62 1015.8
20260901183050 79 147 3.5 7.0 0.00 0.00 0.00 62 1015.7
20260901181554 79 220 1.7 6.1 0.00 0.00 0.00 63 1015.7
20260901180043 77 175 0.9 5.2 0.00 0.00 0.00 62 1015.7
20260901174551 76 0 0.9 3.5 0.00 0.00 0.00 65 1015.8
20260901173104 76 178 1.7 4.3 0.00 0.00 0.00 67 1015.7
20260901171554 75 0 0.0 5.2 0.00 0.00 0.00 70 1015.6
20260901170050 73 187 0.0 2.6 0.00 0.00 0.00 74 1015.6
20260901164558 72 313 0.9 2.6 0.00 0.00 0.00 76 1015.6
20260901163044 70 234 0.0 2.6 0.00 0.00 0.00 81 1015.5
20260901161551 69 0 0.9 3.5 0.00 0.00 0.00 83 1015.6
20260901160050 68 183 0.0 2.6 0.00 0.00 0.00 85 1015.5
20260901154546 67 182 0.9 4.3 0.00 0.00 0.00 86 1015.6
20260901153058 67 0 0.0 3.5 0.00 0.00 0.00 87 1015.6
20260901151555 66 0 0.0 0.9 0.00 0.00 0.00 88 1015.4
20260901150046 65 121 0.0 1.7 0.00 0.00 0.00 88 1015.3
20260901144559 65 0 0.0 2.6 0.00 0.00 0.00 88 1015.0
20260901143046 65 128 0.0 1.7 0.00 0.00 0.00 88 1015.1
20260901141556 64 0 0.0 0.9 0.00 0.00 0.00 88 1015.1
20260901140048 64 0 0.0 0.9 0.00 0.00 0.00 88 1015.0
20260901134547 64 0 0.0 1.7 0.00 0.00 0.00 88 1014.7
20260901133057 63 0 0.0 0.0 0.00 0.00 0.00 88 1014.6
20260901131549 63 0 0.0 0.0 0.00 0.00 0.00 88 1014.5
20260901130048 62 0 0.0 0.0 0.00 0.00 0.00 87 1014.5
20260901124553 62 0 0.0 0.0 0.00 0.00 0.00 87 1014.4
20260901123044 62 0 0.0 0.0 0.00 0.00 0.00 87 1014.4
20260901121558 61 0 0.0 0.0 0.00 0.00 0.00 87 1014.3
20260901120044 61 0 0.0 0.0 0.00 0.00 0.00 87 1014.1
20260901114552 62 0 0.0 0.0 0.00 0.00 0.00 86 1014.0
20260901113050 62 0 0.0 0.0 0.00 0.00 0.00 87 1014.1
20260901111552 62 0 0.0 0.0 0.00 0.00 0.00 86 1014.2
20260901110048 62 0 0.0 0.0 0.00 0.00 0.00 86 1014.3
20260901104553 63 0 0.0 0.0 0.00 0.00 0.00 86 1014.3
20260901103052 63 0 0.0 0.0 0.00 0.00 0.00 86 1014.3
20260901101552 64 0 0.0 0.0 0.00 0.00 0.00 86 1014.4
20260901100047 64 0 0.0 0.0 0.00 0.00 0.00 86 1014.3
20260901094559 64 0 0.0 0.9 0.00 0.00 0.00 86 1014.4
20260901093124 64 0 0.0 0.9 0.00 0.00 0.00 86 1014.5
20260901091600 65 0 0.0 0.9 0.00 0.00 0.00 85 1014.3
20260901090056 65 0 0.0 0.9 0.00 0.00 0.00 85 1014.3
20260901084557 65 0 0.0 0.9 0.00 0.00 0.00 85 1014.3
20260901083049 65 0 0.0 0.0 0.00 0.00 0.00 84 1014.4
20260901081546 65 0 0.0 0.0 0.00 0.00 0.00 84 1014.6
20260901080049 65 0 0.0 0.0 0.00 0.00 0.00 84 1014.5
20260901074545 66 0 0.0 0.0 0.00 0.00 0.00 84 1014.7
20260901073050 66 0 0.0 0.9 0.00 0.00 0.00 83 1014.7
20260901071548 66 0 0.0 0.9 0.00 0.00 0.00 83 1014.6
20260901070055 67 0 0.0 0.0 0.00 0.00 0.00 82 1014.7
20260901064554 67 0 0.0 0.0 0.00 0.00 0.00 82 1014.6
20260901063048 67 0 0.0 0.0 0.00 0.00 0.00 82 1014.3
20260901061548 68 0 0.0 0.9 0.00 0.00 0.00 82 1014.2
20260901060058 68 0 0.0 0.9 0.00 0.00 0.00 81 1014.2
20260901054553 68 0 0.0 1.7 0.00 0.00 0.00 81 1014.2
20260901053105 68 0 0.0 0.9 0.00 0.00 0.00 80 1014.1
20260901051544 68 236 0.0 0.9 0.00 0.00 0.00 79 1014.0
20260901050052 69 0 0.0 0.9 0.00 0.00 0.00 79 1013.8
20260901044552 69 0 0.0 1.7 0.00 0.00 0.00 78 1013.8
20260901043115 69 265 0.0 1.7 0.00 0.00 0.00 78 1013.6
20260901041557 70 243 0.0 2.6 0.00 0.00 0.00 77 1013.6
20260901040053 70 0 0.0 3.5 0.00 0.00 0.00 77 1013.3
20260901034601 70 297 0.0 2.6 0.00 0.00 0.00 76 1013.1
20260901033059 71 0 0.0 3.5 0.00 0.00 0.00 75 1013.0
20260901031545 71 0 0.0 3.5 0.00 0.00 0.00 74 1012.8
20260901030050 71 0 0.9 3.5 0.00 0.00 0.00 74 1012.5
20260901024554 72 279 0.9 4.3 0.00 0.00 0.00 72 1012.5
20260901023048 73 17 1.7 5.2 0.00 0.00 0.00 71 1012.2
20260901021545 74 302 2.6 5.2 0.00 0.00 0.00 69 1012.3
20260901020043 75 313 1.7 6.1 0.00 0.00 0.00 67 1012.3
20260901014550 75 0 0.0 3.5 0.00 0.00 0.00 65 1012.2
20260901013047 76 5 2.6 7.8 0.00 0.00 0.00 63 1012.3
20260901011554 78 324 1.7 7.0 0.00 0.00 0.00 62 1012.1
20260901010100 80 329 1.7 6.1 0.00 0.00 0.00 60 1012.2
20260901004552 81 287 1.7 6.1 0.00 0.00 0.00 58 1012.2
20260901003055 82 307 0.9 7.8 0.00 0.00 0.00 57 1012.2
20260901001545 81 199 3.5 7.8 0.00 0.00 0.00 54 1012.2